Weather History for KLSF - October, 2013

Change the Weather History Date:

Wednesday, October 9, 2013

  Actual Average Record
Temperature  
Mean Temperature 68 °F -  
Max Temperature 79 °F 76 °F 90 °F (2014)
Min Temperature 59 °F 54 °F 41 °F (2000)
Cooling Degree Days 4    
Growing Degree Days 18 (Base 50)    
Moisture  
Dew Point 59 °F    
Average Humidity 84    
Maximum Humidity 100    
Minimum Humidity 60    
Precipitation  
Precipitation 0.00 in - - ()
Sea Level Pressure  
Sea Level Pressure 30.12 in    
Wind  
Wind Speed 5 mph (NE)    
Max Wind Speed 10 mph    
Max Gust Speed 18 mph    
Visibility 8 miles    
Events Fog    
Averages and records for this station are not official NWS values.
T = Trace of Precipitation, MM = Missing Value Source: NWS Daily Summary

Daily Weather History Graph

Daily Weather History Graph

Search for Another Location

Airport or City:

Trip Planner

Search our weather history database for the weather conditions in past years. The results will help you decide how hot, cold, wet, or windy it might be!

Date:

Astronomy

Oct. 09, 2013 Rise Set
Actual Time 7:39 AM EDT 7:14 PM EDT
Civil Twilight 7:14 AM EDT 7:38 PM EDT
Nautical Twilight 6:46 AM EDT 8:07 PM EDT
Astronomical Twilight 6:18 AM EDT 8:35 PM EDT
Moon 12:20 PM EDT (10/9) 11:01 PM EDT (10/9)
Length of Visible Light 12h 23m
Length of Day
11h 34m
Waxing Crescent, 25% of the Moon is Illuminated
Oct 9
Waxing Crescent
Oct 11
First Quarter
Oct 18
Full
Oct 26
Last Quarter
Nov 3
New

Hourly Weather History & Observations

Time (EDT) Temp. Dew Point Humidity Pressure Visibility Wind Dir Wind Speed Gust Speed Precip Events Conditions
12:58 AM 64.4 °F 57.2 °F 77% 30.10 in 10.0 mi ENE 5.8 mph - N/A   Overcast
1:43 AM 64.4 °F 57.2 °F 77% 30.09 in 10.0 mi East 5.8 mph - N/A   Overcast
1:58 AM 63.7 °F 58.1 °F 82% 30.11 in 10.0 mi NE 10.4 mph - N/A   Overcast
2:08 AM 64.4 °F 57.2 °F 77% 30.10 in 10.0 mi ENE 9.2 mph - N/A   Overcast
2:33 AM 62.6 °F 57.2 °F 82% 30.10 in 10.0 mi East 6.9 mph - N/A   Overcast
2:58 AM 63.3 °F 57.9 °F 83% 30.12 in 10.0 mi ENE 4.6 mph - N/A   Overcast
3:03 AM 62.6 °F 57.2 °F 82% 30.10 in 10.0 mi NE 4.6 mph - N/A   Overcast
3:33 AM 62.6 °F 57.2 °F 82% 30.10 in 10.0 mi NE 10.4 mph - N/A   Overcast
3:58 AM 61.5 °F 58.3 °F 89% 30.11 in 10.0 mi Variable 6.9 mph - N/A   Overcast
4:43 AM 60.8 °F 57.2 °F 88% 30.10 in 10.0 mi ENE 8.1 mph - N/A   Overcast
4:58 AM 61.5 °F 56.7 °F 84% 30.12 in 10.0 mi NE 5.8 mph - N/A   Overcast
5:58 AM 61.0 °F 55.9 °F 83% 30.13 in 10.0 mi NE 6.9 mph - N/A   Overcast
6:58 AM 60.8 °F 55.9 °F 84% 30.13 in 10.0 mi Variable 5.8 mph - N/A   Overcast
7:58 AM 60.8 °F 55.8 °F 83% 30.14 in 10.0 mi ENE 5.8 mph - N/A   Overcast
8:58 AM 61.3 °F 55.8 °F 82% 30.15 in 10.0 mi ENE 9.2 mph 18.4 mph N/A   Overcast
9:28 AM 62.6 °F 55.4 °F 77% 30.15 in 10.0 mi ENE 8.1 mph - N/A   Overcast
9:38 AM 62.6 °F 55.4 °F 77% 30.16 in 10.0 mi East 6.9 mph - N/A   Overcast
9:58 AM 62.8 °F 56.3 °F 79% 30.17 in 10.0 mi East 10.4 mph - N/A   Overcast
10:28 AM 64.4 °F 57.2 °F 77% 30.17 in 10.0 mi ENE 8.1 mph - N/A   Overcast
10:58 AM 64.9 °F 56.7 °F 74% 30.18 in 10.0 mi East 10.4 mph - N/A   Overcast
11:58 AM 68.5 °F 58.1 °F 69% 30.18 in 10.0 mi East 9.2 mph - N/A   Overcast
12:58 PM 69.1 °F 58.8 °F 70% 30.17 in 10.0 mi East 6.9 mph - N/A   Mostly Cloudy
1:08 PM 69.8 °F 59.0 °F 68% 30.16 in 10.0 mi ENE 5.8 mph - N/A   Scattered Clouds
1:58 PM 73.2 °F 61.0 °F 65% 30.14 in 10.0 mi Variable 4.6 mph - N/A   Scattered Clouds
2:08 PM 75.2 °F 62.6 °F 65% 30.13 in 10.0 mi North 3.5 mph - N/A   Mostly Cloudy
2:13 PM 73.4 °F 60.8 °F 65% 30.12 in 10.0 mi ESE 6.9 mph - N/A   Scattered Clouds
2:58 PM 75.7 °F 62.1 °F 62% 30.12 in 10.0 mi Variable 2.3 mph - N/A   Clear
3:58 PM 77.0 °F 62.8 °F 61% 30.10 in 10.0 mi North 4.6 mph - N/A   Clear
4:58 PM 78.1 °F 63.0 °F 60% 30.09 in 10.0 mi Calm Calm - N/A   Clear
5:58 PM 78.1 °F 64.0 °F 62% 30.08 in 10.0 mi West 1.2 mph - N/A   Clear
6:58 PM 70.5 °F 66.7 °F 88% 30.08 in 10.0 mi WSW 1.2 mph - N/A   Clear
7:58 PM 65.5 °F 64.8 °F 98% 30.09 in 10.0 mi Calm Calm - N/A   Clear
8:58 PM 63.3 °F 63.0 °F 99% 30.10 in 10.0 mi Calm Calm - N/A   Clear
9:33 PM 62.6 °F 62.6 °F 100% 30.09 in 2.5 mi WNW 2.3 mph - N/A   Clear
9:38 PM 60.8 °F 60.8 °F 100% 30.09 in 1.8 mi Calm Calm - N/A   Clear
9:43 PM 60.8 °F 60.8 °F 100% 30.10 in 1.0 mi Calm Calm - N/A   Clear
9:53 PM 60.8 °F 59.0 °F 94% 30.10 in 1.5 mi Calm Calm - N/A   Clear
9:58 PM 60.8 °F 59.0 °F 94% 30.11 in 3.0 mi Calm Calm - N/A   Clear
10:03 PM 60.8 °F 60.8 °F 100% 30.10 in 10.0 mi Calm Calm - N/A   Clear
10:33 PM 60.8 °F 60.8 °F 100% 30.11 in 1.2 mi Calm Calm - N/A   Clear
10:38 PM 60.8 °F 59.0 °F 94% 30.11 in 10.0 mi Calm Calm - N/A   Clear
10:58 PM 61.2 °F 60.8 °F 99% 30.12 in 1.8 mi Calm Calm - N/A   Clear
11:03 PM 60.8 °F 60.8 °F 100% 30.11 in 1.0 mi Calm Calm - N/A   Clear
11:08 PM 60.8 °F 60.8 °F 100% 30.11 in 1.0 mi Calm Calm - N/A   Clear
11:23 PM 59.0 °F 59.0 °F 100% 30.11 in 0.8 mi NNW 1.2 mph - N/A   Clear
11:28 PM 60.8 °F 59.0 °F 94% 30.11 in 0.5 mi NNW 1.2 mph - N/A Fog Fog
11:43 PM 59.0 °F 59.0 °F 100% 30.11 in 0.8 mi Calm Calm - N/A   Clear
11:58 PM 59.5 °F 59.2 °F 99% 30.12 in 0.8 mi Variable 1.2 mph - N/A   Clear